Weather History for KMFR - January, 2014

Change the Weather History Date:

Saturday, January 11, 2014

  Actual Average Record
Temperature  
Mean Temperature 46 °F 40 °F  
Max Temperature 53 °F 47 °F 67 °F (2010)
Min Temperature 38 °F 33 °F -3 °F (1930)
Degree Days  
Heating Degree Days 19 25  
Month to date heating degree days 273 284  
Since 1 July heating degree days 2364 2050  
Cooling Degree Days 0 0  
Month to date cooling degree days 0 0  
Year to date cooling degree days 0 0  
Moisture  
Dew Point 39 °F    
Average Humidity 72    
Maximum Humidity 93    
Minimum Humidity 50    
Precipitation  
Precipitation 0.35 in 0.08 in 0.95 in (1979)
Month to date precipitation 0.50 1.00  
Year to date precipitation 0.50 1.00  
Snow  
Snow 0.00 in 0.00 in - ()
Month to date snowfall 0.0 0.5  
Since 1 July snowfall 3.4 2.2  
Snow Depth 0.00 in    
Sea Level Pressure  
Sea Level Pressure 30.00 in    
Wind  
Wind Speed 6 mph (SE)    
Max Wind Speed 30 mph    
Max Gust Speed 38 mph    
Visibility 5 miles    
Events Fog , Rain    
T = Trace of Precipitation, MM = Missing Value Source: NWS Daily Summary

Daily Weather History Graph

Daily Weather History Graph

Search for Another Location

Airport or City:

Trip Planner

Search our weather history database for the weather conditions in past years. The results will help you decide how hot, cold, wet, or windy it might be!

Date:

Astronomy

Jan. 11, 2014 Rise Set
Actual Time 7:39 AM PST 4:59 PM PST
Civil Twilight 7:08 AM PST 5:31 PM PST
Nautical Twilight 6:33 AM PST 6:05 PM PST
Astronomical Twilight 5:59 AM PST 6:39 PM PST
Moon 1:48 PM PST (1/11) 3:48 AM PST (1/11)
Length of Visible Light 10h 22m
Length of Day
9h 20m
Waxing Gibbous, 84% of the Moon is Illuminated
Jan 11
Waxing Gibbous
Jan 15
Full
Jan 23
Last Quarter
Jan 30
New
Feb 6
First Quarter

Hourly Weather History & Observations

Time (PST) Temp. Windchill Dew Point Humidity Pressure Visibility Wind Dir Wind Speed Gust Speed Precip Events Conditions
12:06 AM 39.9 °F - 39.0 °F 97% 30.04 in 0.8 mi Calm Calm - N/A   Mist
12:21 AM 39.9 °F 37.8 °F 39.0 °F 97% 30.03 in 0.2 mi ESE 3.5 mph - N/A Fog Fog
12:41 AM 41.0 °F 38.0 °F 39.0 °F 93% 30.01 in 1.0 mi SSE 4.6 mph - N/A   Mist
12:47 AM 41.0 °F 37.1 °F 39.2 °F 93% 30.01 in 0.8 mi SE 5.8 mph - N/A   Mist
12:53 AM 41.0 °F 37.1 °F 39.9 °F 96% 30.03 in 0.8 mi SSE 5.8 mph - N/A   Mist
1:01 AM 41.0 °F 38.0 °F 39.9 °F 96% 30.00 in 1.5 mi SE 4.6 mph - N/A   Overcast
1:33 AM 41.0 °F - 39.9 °F 96% 30.00 in 0.5 mi Calm Calm - N/A Fog Fog
1:48 AM 41.0 °F - 39.2 °F 93% 29.99 in 0.2 mi Calm Calm - N/A Fog Fog
1:53 AM 41.0 °F - 39.9 °F 96% 30.00 in 0.2 mi Calm Calm - N/A Fog Fog
2:30 AM 41.0 °F - 39.9 °F 96% 29.97 in 0.5 mi Calm Calm - N/A Fog Fog
2:39 AM 41.0 °F - 39.9 °F 96% 29.97 in 0.2 mi Calm Calm - N/A Fog Fog
2:53 AM 41.0 °F - 39.9 °F 96% 29.98 in 0.2 mi Calm Calm - N/A Fog Fog
3:53 AM 41.0 °F - 39.9 °F 96% 29.93 in 0.2 mi Calm Calm - N/A Fog Fog
4:06 AM 41.0 °F 39.0 °F 39.9 °F 96% 29.91 in 0.2 mi Variable 3.5 mph - N/A Fog Fog
4:18 AM 41.0 °F 38.0 °F 39.0 °F 93% 29.91 in 0.5 mi NW 4.6 mph - N/A Fog Fog
4:44 AM 41.0 °F 38.0 °F 39.9 °F 96% 29.90 in 0.2 mi NNE 4.6 mph - N/A Fog Fog
4:53 AM 41.0 °F 36.4 °F 39.9 °F 96% 29.91 in 0.5 mi ENE 6.9 mph - N/A Fog Fog
5:04 AM 41.0 °F 37.1 °F 39.9 °F 96% 29.88 in 0.2 mi Variable 5.8 mph - N/A Fog Fog
5:31 AM 41.0 °F - 39.0 °F 93% 29.91 in 0.5 mi North - - 0.00 in Fog , Rain Light Rain
5:37 AM 41.0 °F 34.7 °F 39.0 °F 93% 29.90 in 0.5 mi North 10.4 mph - 0.00 in Fog , Rain Light Rain
5:49 AM 41.0 °F 35.8 °F 39.2 °F 93% 29.91 in 1.0 mi NE 8.1 mph - 0.01 in Rain Light Rain
5:53 AM 41.0 °F 39.0 °F 39.9 °F 96% 29.94 in 1.5 mi NE 3.5 mph - 0.01 in Rain Light Rain
6:03 AM 41.0 °F - 39.9 °F 96% 29.93 in 1.8 mi Calm Calm - 0.01 in Rain Light Rain
6:10 AM 41.0 °F 38.0 °F 39.9 °F 96% 29.93 in 2.0 mi NNE 4.6 mph - 0.02 in Rain Rain
6:22 AM 41.0 °F 35.8 °F 39.0 °F 93% 29.91 in 3.0 mi East 8.1 mph - 0.04 in Rain Rain
6:53 AM 41.0 °F 39.0 °F 39.9 °F 96% 29.91 in 4.0 mi East 3.5 mph - 0.11 in Rain Rain
7:53 AM 41.0 °F - 39.9 °F 96% 29.93 in 5.0 mi Calm Calm - 0.05 in Rain Light Rain
8:18 AM 43.0 °F 37.7 °F 41.0 °F 93% 29.94 in 4.0 mi WNW 9.2 mph - 0.04 in Rain Light Rain
8:36 AM 42.1 °F - 41.0 °F 96% 29.96 in 2.5 mi Calm Calm - 0.06 in Rain Light Rain
8:42 AM 42.1 °F - 41.0 °F 96% 29.97 in 4.0 mi Calm Calm - 0.07 in Rain Light Rain
8:53 AM 42.1 °F 39.2 °F 39.9 °F 92% 29.99 in 7.0 mi East 4.6 mph - 0.07 in Rain Light Rain
9:53 AM 50.0 °F - 37.9 °F 63% 30.00 in 10.0 mi South 4.6 mph - 0.00 in   Scattered Clouds
10:53 AM 52.0 °F - 37.0 °F 57% 30.00 in 10.0 mi WSW 16.1 mph 23.0 mph N/A   Scattered Clouds
11:53 AM 52.0 °F - 34.0 °F 50% 29.96 in 10.0 mi SW 10.4 mph 19.6 mph N/A   Mostly Cloudy
12:53 PM 50.0 °F - 37.0 °F 61% 29.93 in 10.0 mi SW 9.2 mph - 0.00 in   Mostly Cloudy
1:53 PM 50.0 °F - 37.9 °F 63% 29.94 in 10.0 mi West 8.1 mph - 0.00 in Rain Light Rain
2:53 PM 46.0 °F 40.6 °F 37.9 °F 73% 29.98 in 9.0 mi WSW 11.5 mph 25.3 mph 0.02 in Rain Light Rain
3:53 PM 44.1 °F 38.6 °F 37.9 °F 79% 30.01 in 10.0 mi South 10.4 mph - 0.04 in   Mostly Cloudy
4:53 PM 45.0 °F 40.1 °F 36.0 °F 71% 30.02 in 10.0 mi SSE 9.2 mph - N/A   Mostly Cloudy
5:53 PM 44.1 °F 40.1 °F 36.0 °F 73% 30.07 in 8.0 mi WSW 6.9 mph - 0.02 in Rain Light Rain
6:53 PM 42.1 °F 36.6 °F 36.0 °F 79% 30.10 in 10.0 mi SSE 9.2 mph - 0.00 in   Mostly Cloudy
7:53 PM 43.0 °F 40.3 °F 36.0 °F 76% 30.14 in 10.0 mi SSE 4.6 mph - 0.01 in   Overcast
8:53 PM 43.0 °F 41.3 °F 37.0 °F 80% 30.18 in 10.0 mi North 3.5 mph - 0.00 in Rain Light Rain
9:53 PM 42.1 °F 40.2 °F 37.0 °F 82% 30.21 in 10.0 mi NW 3.5 mph - 0.02 in Rain Light Rain
10:53 PM 39.0 °F - 34.0 °F 82% 30.24 in 10.0 mi Calm Calm - 0.00 in   Mostly Cloudy
11:53 PM 41.0 °F - 37.0 °F 86% 30.26 in 10.0 mi Calm Calm - N/A   Overcast